Time,TemperatureF,DewpointF,PressureIn,WindDirection,WindDirectionDegrees,WindSpeedMPH,WindSpeedGustMPH,Humidity,HourlyPrecipIn,Conditions,Clouds,dailyrainin,SoftwareType,DateUTC
2013-04-13 00:00:00,37.9,34.1,28.64,WNW,292,3.1,3.1,86,0.09,,,0.71,VWS V14.01,2013-04-13 07:00:00,
2013-04-13 00:05:00,37.8,34.0,28.64,WNW,292,2.0,2.0,86,0.00,,OVC047,0.00,VWS V14.01,2013-04-13 07:05:00,
2013-04-13 00:10:00,37.9,33.2,28.64,East,90,1.6,1.6,83,0.00,,OVC047,0.00,VWS V14.01,2013-04-13 07:10:00,
2013-04-13 00:15:00,37.9,33.2,28.64,SSE,158,2.0,2.0,83,0.00,,OVC047,0.00,VWS V14.01,2013-04-13 07:15:00,
2013-04-13 00:20:00,37.9,33.2,28.64,SSE,158,3.8,3.8,83,0.00,,OVC047,0.00,VWS V14.01,2013-04-13 07:20:00,
2013-04-13 00:25:00,37.6,32.0,28.64,North,0,1.3,1.3,80,0.00,,OVC047,0.00,VWS V14.01,2013-04-13 07:25:00,
2013-04-13 00:30:00,37.4,31.8,28.64,SSW,202,3.4,3.4,80,0.00,,OVC047,0.00,VWS V14.01,2013-04-13 07:30:00,
2013-04-13 00:35:00,37.2,32.2,28.64,SSW,202,2.5,2.5,82,0.00,,OVC047,0.00,VWS V14.01,2013-04-13 07:35:00,
2013-04-13 00:40:00,37.4,32.4,28.64,West,270,2.0,2.0,82,0.00,,OVC047,0.00,VWS V14.01,2013-04-13 07:40:00,
2013-04-13 00:45:00,37.0,33.0,28.64,South,180,5.6,5.6,85,0.00,,OVC047,0.00,VWS V14.01,2013-04-13 07:45:00,
2013-04-13 00:50:00,37.0,33.0,28.64,SSW,202,3.1,3.1,85,0.00,,OVC047,0.00,VWS V14.01,2013-04-13 07:50:00,
2013-04-13 00:55:00,37.0,33.0,28.64,SSW,202,5.4,5.4,85,0.00,,OVC047,0.00,VWS V14.01,2013-04-13 07:55:00,
2013-04-13 01:00:00,37.0,33.0,28.64,SSW,202,3.8,3.8,85,0.00,,-RA,0.00,VWS V14.01,2013-04-13 08:00:00,
2013-04-13 01:01:00,37.0,33.0,28.64,SSW,202,2.7,2.7,85,0.00,,OVC029,0.00,VWS V14.01,2013-04-13 08:01:00,
2013-04-13 01:06:00,37.0,33.5,28.64,WSW,248,3.4,3.4,87,0.00,,OVC029,0.00,VWS V14.01,2013-04-13 08:06:00,
2013-04-13 01:11:00,37.0,33.8,28.64,South,180,1.1,1.1,88,0.00,,OVC029,0.00,VWS V14.01,2013-04-13 08:11:00,
2013-04-13 01:17:00,37.0,33.8,28.64,SSE,158,2.0,2.0,88,0.00,,OVC029,0.00,VWS V14.01,2013-04-13 08:17:00,
2013-04-13 01:22:00,37.0,33.8,28.64,WSW,248,1.3,1.3,88,0.00,,OVC029,0.00,VWS V14.01,2013-04-13 08:22:00,
2013-04-13 01:27:00,37.2,34.3,28.64,NNW,338,2.0,2.0,89,0.00,,OVC029,0.00,VWS V14.01,2013-04-13 08:27:00,
2013-04-13 01:30:00,37.0,34.1,28.64,SW,225,2.9,2.9,89,0.00,,-RA,0.00,VWS V14.01,2013-04-13 08:30:00,
2013-04-13 01:32:00,37.0,34.1,28.64,West,270,1.6,1.6,89,0.00,,OVC029,0.00,VWS V14.01,2013-04-13 08:32:00,
2013-04-13 01:37:00,36.9,34.2,28.64,ESE,112,1.3,1.3,90,0.00,,OVC029,0.00,VWS V14.01,2013-04-13 08:37:00,
2013-04-13 01:42:00,36.7,34.3,28.64,WSW,248,1.6,1.6,91,0.00,,OVC029,0.00,VWS V14.01,2013-04-13 08:42:00,
2013-04-13 01:47:00,36.3,34.0,28.64,North,0,2.5,2.5,91,0.00,,OVC029,0.00,VWS V14.01,2013-04-13 08:47:00,
2013-04-13 01:52:00,35.8,33.1,28.64,South,180,0.0,0.0,90,0.04,,OVC029,0.04,VWS V14.01,2013-04-13 08:52:00,
2013-04-13 01:57:00,35.4,33.1,28.64,WNW,292,2.2,2.2,91,0.04,,OVC029,0.04,VWS V14.01,2013-04-13 08:57:00,
2013-04-13 02:00:00,35.4,33.1,28.64,West,270,0.9,0.9,91,0.04,,-RA,0.04,VWS V14.01,2013-04-13 09:00:00,
2013-04-13 02:02:00,35.4,33.1,28.64,SSW,202,2.7,2.7,91,0.04,,OVC026,0.04,VWS V14.01,2013-04-13 09:02:00,
2013-04-13 02:07:00,35.4,33.3,28.64,West,270,1.1,1.1,92,0.04,,OVC026,0.04,VWS V14.01,2013-04-13 09:07:00,
2013-04-13 02:12:00,35.4,33.6,28.64,NNE,22,5.8,5.8,93,0.04,,OVC026,0.04,VWS V14.01,2013-04-13 09:12:00,
2013-04-13 02:17:00,35.1,33.2,28.64,NE,45,2.9,2.9,93,0.08,,OVC026,0.08,VWS V14.01,2013-04-13 09:17:00,
2013-04-13 02:22:00,35.1,33.2,28.64,SE,135,2.7,2.7,93,0.08,,OVC026,0.08,VWS V14.01,2013-04-13 09:22:00,
2013-04-13 02:28:00,35.1,33.5,28.64,WSW,248,4.0,4.0,94,0.08,,OVC026,0.08,VWS V14.01,2013-04-13 09:28:00,
2013-04-13 02:30:00,35.1,33.5,28.64,NW,315,1.1,1.1,94,0.08,,-RA,0.08,VWS V14.01,2013-04-13 09:30:00,
2013-04-13 02:33:00,35.2,33.7,28.64,East,90,2.0,2.0,94,0.08,,OVC026,0.08,VWS V14.01,2013-04-13 09:33:00,
2013-04-13 02:38:00,35.2,33.7,28.64,NW,315,2.7,2.7,94,0.08,,OVC026,0.08,VWS V14.01,2013-04-13 09:38:00,
2013-04-13 02:43:00,35.4,33.6,28.64,NNE,22,2.5,2.5,93,0.08,,OVC026,0.08,VWS V14.01,2013-04-13 09:43:00,
2013-04-13 02:48:00,35.4,33.6,28.64,SSE,158,2.0,2.0,93,0.08,,OVC026,0.08,VWS V14.01,2013-04-13 09:48:00,
2013-04-13 02:53:00,35.4,33.6,28.64,WSW,248,2.0,2.0,93,0.08,,OVC026,0.08,VWS V14.01,2013-04-13 09:53:00,
2013-04-13 02:58:00,35.4,33.6,28.64,WNW,292,1.3,1.3,93,0.08,,OVC026,0.08,VWS V14.01,2013-04-13 09:58:00,
2013-04-13 03:00:00,35.6,33.5,28.64,WNW,292,3.4,3.4,92,0.08,,-RA,0.08,VWS V14.01,2013-04-13 10:00:00,
2013-04-13 03:03:00,35.4,33.3,28.64,SW,225,2.7,2.7,92,0.04,,OVC060,0.08,VWS V14.01,2013-04-13 10:03:00,
2013-04-13 03:08:00,35.2,33.4,28.64,WNW,292,2.7,2.7,93,0.04,,OVC060,0.08,VWS V14.01,2013-04-13 10:08:00,
2013-04-13 03:13:00,34.9,33.3,28.64,NE,45,3.1,3.1,94,0.04,,OVC060,0.08,VWS V14.01,2013-04-13 10:13:00,
2013-04-13 03:18:00,34.9,33.3,28.64,SSW,202,4.3,4.3,94,0.04,,OVC060,0.08,VWS V14.01,2013-04-13 10:18:00,
2013-04-13 03:23:00,34.9,33.6,28.64,West,270,3.4,3.4,95,0.04,,OVC060,0.08,VWS V14.01,2013-04-13 10:23:00,
2013-04-13 03:29:00,34.7,33.4,28.64,WNW,292,2.5,2.5,95,0.04,,OVC060,0.08,VWS V14.01,2013-04-13 10:29:00,
2013-04-13 03:30:00,34.7,33.4,28.64,NNW,338,4.0,4.0,95,0.04,,-RA,0.08,VWS V14.01,2013-04-13 10:30:00,
2013-04-13 03:34:00,34.7,33.4,28.64,SSW,202,5.4,5.4,95,0.00,,OVC060,0.08,VWS V14.01,2013-04-13 10:34:00,
2013-04-13 03:39:00,34.7,33.4,28.64,WNW,292,5.6,5.6,95,0.00,,OVC060,0.08,VWS V14.01,2013-04-13 10:39:00,
2013-04-13 03:44:00,34.7,33.2,28.64,WSW,248,3.6,3.6,94,0.00,,OVC060,0.08,VWS V14.01,2013-04-13 10:44:00,
2013-04-13 03:49:00,34.9,33.1,28.67,SW,225,4.3,4.3,93,0.00,,OVC060,0.08,VWS V14.01,2013-04-13 10:49:00,
2013-04-13 03:54:00,34.7,32.9,28.67,SSW,202,4.9,4.9,93,0.00,,OVC060,0.08,VWS V14.01,2013-04-13 10:54:00,
2013-04-13 03:59:00,34.5,32.7,28.67,SW,225,2.9,2.9,93,0.00,,OVC060,0.08,VWS V14.01,2013-04-13 10:59:00,
2013-04-13 04:00:00,34.5,32.7,28.67,SSW,202,4.0,4.0,93,0.00,,-RA,0.08,VWS V14.01,2013-04-13 11:00:00,
2013-04-13 04:04:00,34.5,33.0,28.67,South,180,5.4,5.4,94,0.00,,BKN039,0.08,VWS V14.01,2013-04-13 11:04:00,
2013-04-13 04:09:00,34.5,33.0,28.67,WNW,292,3.8,3.8,94,0.00,,BKN039,0.08,VWS V14.01,2013-04-13 11:09:00,
2013-04-13 04:14:00,34.5,33.0,28.67,WSW,248,1.3,1.3,94,0.04,,BKN039,0.12,VWS V14.01,2013-04-13 11:14:00,
2013-04-13 04:19:00,34.3,32.8,28.67,NNW,338,2.7,2.7,94,0.04,,BKN039,0.12,VWS V14.01,2013-04-13 11:19:00,
2013-04-13 04:24:00,34.5,33.0,28.67,SSW,202,2.2,2.2,94,0.04,,BKN039,0.12,VWS V14.01,2013-04-13 11:24:00,
2013-04-13 04:29:00,34.5,33.0,28.67,WNW,292,2.5,2.5,94,0.04,,BKN039,0.12,VWS V14.01,2013-04-13 11:29:00,
2013-04-13 04:30:00,34.5,33.0,28.67,WSW,248,2.9,2.9,94,0.04,,-RA,0.12,VWS V14.01,2013-04-13 11:30:00,
2013-04-13 04:34:00,34.5,33.0,28.67,NE,45,1.6,1.6,94,0.04,,BKN039,0.12,VWS V14.01,2013-04-13 11:34:00,
2013-04-13 04:39:00,34.3,32.5,28.67,WSW,248,3.1,3.1,93,0.04,,BKN039,0.12,VWS V14.01,2013-04-13 11:39:00,
2013-04-13 04:44:00,34.3,32.5,28.67,NNW,338,7.6,7.6,93,0.04,,BKN039,0.12,VWS V14.01,2013-04-13 11:44:00,
2013-04-13 04:49:00,34.2,32.3,28.67,ESE,112,1.6,1.6,93,0.04,,BKN039,0.12,VWS V14.01,2013-04-13 11:49:00,
2013-04-13 04:54:00,34.0,32.2,28.67,South,180,2.2,2.2,93,0.04,,BKN039,0.12,VWS V14.01,2013-04-13 11:54:00,
2013-04-13 04:59:00,33.8,32.3,28.67,SSW,202,2.9,2.9,94,0.04,,BKN039,0.12,VWS V14.01,2013-04-13 11:59:00,
2013-04-13 05:00:00,33.8,32.3,28.67,WSW,248,4.3,4.3,94,0.04,,-RA,0.12,VWS V14.01,2013-04-13 12:00:00,
2013-04-13 05:05:00,33.8,32.5,28.67,ENE,68,2.5,2.5,95,0.04,,BKN039,0.12,VWS V14.01,2013-04-13 12:05:00,
2013-04-13 05:10:00,34.0,32.7,28.67,South,180,2.0,2.0,95,0.04,,BKN039,0.12,VWS V14.01,2013-04-13 12:10:00,
2013-04-13 05:15:00,33.8,32.8,28.67,North,0,2.7,2.7,96,0.04,,BKN039,0.12,VWS V14.01,2013-04-13 12:15:00,
2013-04-13 05:20:00,33.8,32.8,28.70,ENE,68,4.3,4.3,96,0.04,,BKN039,0.12,VWS V14.01,2013-04-13 12:20:00,
2013-04-13 05:25:00,33.8,32.8,28.70,NW,315,4.0,4.0,96,0.04,,BKN039,0.12,VWS V14.01,2013-04-13 12:25:00,
2013-04-13 05:30:00,33.6,32.6,28.70,SSW,202,1.1,1.1,96,0.04,,-RA,0.12,VWS V14.01,2013-04-13 12:30:00,
2013-04-13 05:31:00,33.6,32.6,28.70,WNW,292,3.1,3.1,96,0.00,,OVC070,0.12,VWS V14.01,2013-04-13 12:31:00,
2013-04-13 05:36:00,33.6,32.6,28.70,NNW,338,1.6,1.6,96,0.00,,OVC070,0.12,VWS V14.01,2013-04-13 12:36:00,
2013-04-13 05:41:00,33.8,32.8,28.70,NNE,22,2.5,2.5,96,0.00,,OVC070,0.12,VWS V14.01,2013-04-13 12:41:00,
2013-04-13 05:46:00,33.6,32.6,28.70,SSE,158,3.1,3.1,96,0.00,,OVC070,0.12,VWS V14.01,2013-04-13 12:46:00,
2013-04-13 05:51:00,33.6,32.6,28.70,ENE,68,1.6,1.6,96,0.00,,OVC070,0.12,VWS V14.01,2013-04-13 12:51:00,
2013-04-13 05:56:00,33.8,32.5,28.70,WNW,292,5.6,5.6,95,0.00,,OVC070,0.12,VWS V14.01,2013-04-13 12:56:00,
2013-04-13 06:00:00,34.0,32.7,28.70,NW,315,4.7,4.7,95,0.00,,-RA,0.12,VWS V14.01,2013-04-13 13:00:00,
2013-04-13 06:01:00,34.0,32.7,28.70,WSW,248,5.4,5.4,95,0.00,,OVC070,0.12,VWS V14.01,2013-04-13 13:01:00,
2013-04-13 06:07:00,34.0,32.4,28.70,North,0,5.8,5.8,94,0.00,,OVC070,0.12,VWS V14.01,2013-04-13 13:07:00,
2013-04-13 06:12:00,34.2,32.6,28.70,ENE,68,1.1,1.1,94,0.00,,OVC070,0.12,VWS V14.01,2013-04-13 13:12:00,
2013-04-13 06:17:00,34.5,32.7,28.70,SW,225,3.4,3.4,93,0.00,,OVC070,0.12,VWS V14.01,2013-04-13 13:17:00,
2013-04-13 06:22:00,34.5,32.4,28.70,WNW,292,3.6,3.6,92,0.00,,OVC070,0.12,VWS V14.01,2013-04-13 13:22:00,
2013-04-13 06:27:00,34.3,32.3,28.70,NW,315,4.9,4.9,92,0.00,,OVC070,0.12,VWS V14.01,2013-04-13 13:27:00,
2013-04-13 06:30:00,34.3,32.5,28.70,NW,315,2.7,2.7,93,0.00,,-RA,0.12,VWS V14.01,2013-04-13 13:30:00,
2013-04-13 06:32:00,34.3,32.5,28.67,NNE,22,2.9,2.9,93,0.00,,BKN046,0.12,VWS V14.01,2013-04-13 13:32:00,
2013-04-13 06:37:00,34.3,32.8,28.67,WNW,292,4.0,4.0,94,0.00,,BKN046,0.12,VWS V14.01,2013-04-13 13:37:00,
2013-04-13 06:42:00,34.3,32.8,28.67,WNW,292,6.3,6.3,94,0.00,,BKN046,0.12,VWS V14.01,2013-04-13 13:42:00,
2013-04-13 06:47:00,34.5,32.7,28.70,WNW,292,4.9,4.9,93,0.00,,BKN046,0.12,VWS V14.01,2013-04-13 13:47:00,
2013-04-13 06:52:00,34.7,32.6,28.70,NNE,22,5.6,5.6,92,0.00,,BKN046,0.12,VWS V14.01,2013-04-13 13:52:00,
2013-04-13 06:57:00,34.7,32.6,28.70,West,270,3.6,3.6,92,0.00,,BKN046,0.12,VWS V14.01,2013-04-13 13:57:00,
2013-04-13 07:00:00,34.5,32.4,28.70,NNW,338,2.9,2.9,92,0.00,,-RA,0.12,VWS V14.01,2013-04-13 14:00:00,
2013-04-13 07:02:00,34.5,32.4,28.70,WSW,248,3.1,3.1,92,0.00,,OVC060,0.12,VWS V14.01,2013-04-13 14:02:00,
2013-04-13 07:07:00,34.5,32.7,28.70,NE,45,3.8,3.8,93,0.00,,OVC060,0.12,VWS V14.01,2013-04-13 14:07:00,
2013-04-13 07:12:00,34.9,33.1,28.70,NNE,22,1.6,1.6,93,0.00,,OVC060,0.12,VWS V14.01,2013-04-13 14:12:00,
2013-04-13 07:17:00,35.1,32.7,28.70,NE,45,2.9,2.9,91,0.00,,OVC060,0.12,VWS V14.01,2013-04-13 14:17:00,
2013-04-13 07:23:00,35.2,32.3,28.70,NNW,338,3.6,3.6,89,0.00,,OVC060,0.12,VWS V14.01,2013-04-13 14:23:00,
2013-04-13 07:28:00,35.4,32.5,28.70,NW,315,2.5,2.5,89,0.00,,OVC060,0.12,VWS V14.01,2013-04-13 14:28:00,
2013-04-13 07:30:00,35.4,32.5,28.70,WNW,292,3.6,3.6,89,0.00,,-RA,0.12,VWS V14.01,2013-04-13 14:30:00,
2013-04-13 07:33:00,35.4,32.2,28.73,North,0,4.0,4.0,88,0.00,,OVC060,0.12,VWS V14.01,2013-04-13 14:33:00,
2013-04-13 07:38:00,35.6,32.1,28.73,North,0,3.8,3.8,87,0.04,,OVC060,0.16,VWS V14.01,2013-04-13 14:38:00,
2013-04-13 07:43:00,35.8,32.0,28.73,ENE,68,5.6,5.6,86,0.04,,OVC060,0.16,VWS V14.01,2013-04-13 14:43:00,
2013-04-13 07:48:00,35.8,32.3,28.73,NNE,22,4.0,4.0,87,0.04,,OVC060,0.16,VWS V14.01,2013-04-13 14:48:00,
2013-04-13 07:54:00,36.0,32.8,28.73,ESE,112,2.7,2.7,88,0.04,,OVC060,0.16,VWS V14.01,2013-04-13 14:54:00,
2013-04-13 07:59:00,35.8,32.3,28.73,WNW,292,5.6,5.6,87,0.04,,OVC060,0.16,VWS V14.01,2013-04-13 14:59:00,
2013-04-13 08:00:00,35.8,32.3,28.73,West,270,6.3,6.3,87,0.04,,-RA,0.16,VWS V14.01,2013-04-13 15:00:00,
2013-04-13 08:04:00,35.8,32.6,28.73,North,0,2.2,2.2,88,0.04,,-RA,0.16,VWS V14.01,2013-04-13 15:04:00,
2013-04-13 08:09:00,35.6,32.4,28.73,WNW,292,2.9,2.9,88,0.04,,-RA,0.16,VWS V14.01,2013-04-13 15:09:00,
2013-04-13 08:14:00,35.4,32.5,28.73,NNE,22,3.4,3.4,89,0.04,,-RA,0.16,VWS V14.01,2013-04-13 15:14:00,
2013-04-13 08:19:00,35.1,32.2,28.73,NNW,338,2.9,2.9,89,0.04,,-RA,0.16,VWS V14.01,2013-04-13 15:19:00,
2013-04-13 08:24:00,34.9,32.2,28.73,ENE,68,0.0,0.0,90,0.04,,-RA,0.16,VWS V14.01,2013-04-13 15:24:00,
2013-04-13 08:29:00,34.5,32.2,28.73,West,270,2.7,2.7,91,0.04,,-RA,0.16,VWS V14.01,2013-04-13 15:29:00,
2013-04-13 08:30:00,34.5,32.2,28.73,WSW,248,3.6,3.6,91,0.04,,-RA,0.16,VWS V14.01,2013-04-13 15:30:00,
2013-04-13 08:34:00,34.5,32.4,28.73,West,270,6.3,6.3,92,0.08,,-RA,0.20,VWS V14.01,2013-04-13 15:34:00,
2013-04-13 08:39:00,34.3,32.5,28.73,North,0,3.1,3.1,93,0.08,,-RA,0.20,VWS V14.01,2013-04-13 15:39:00,
2013-04-13 08:44:00,34.3,32.5,28.73,NNE,22,4.3,4.3,93,0.08,,-RA,0.20,VWS V14.01,2013-04-13 15:44:00,
2013-04-13 08:49:00,34.7,33.2,28.73,WNW,292,2.5,2.5,94,0.08,,-RA,0.20,VWS V14.01,2013-04-13 15:49:00,
2013-04-13 08:55:00,34.9,33.6,28.73,NE,45,3.1,3.1,95,0.08,,-RA,0.20,VWS V14.01,2013-04-13 15:55:00,
2013-04-13 09:00:00,35.1,33.8,28.73,ESE,112,3.1,3.1,95,0.08,,-RA,0.20,VWS V14.01,2013-04-13 16:00:00,
2013-04-13 09:05:00,35.1,33.8,28.76,NE,45,1.1,1.1,95,0.04,,BKN080,0.20,VWS V14.01,2013-04-13 16:05:00,
2013-04-13 09:10:00,35.4,34.1,28.76,ESE,112,2.0,2.0,95,0.04,,BKN080,0.20,VWS V14.01,2013-04-13 16:10:00,
2013-04-13 09:15:00,35.4,34.1,28.76,SE,135,1.1,1.1,95,0.04,,BKN080,0.20,VWS V14.01,2013-04-13 16:15:00,
2013-04-13 09:20:00,36.0,34.7,28.76,SE,135,1.1,1.1,95,0.04,,BKN080,0.20,VWS V14.01,2013-04-13 16:20:00,
2013-04-13 09:25:00,36.3,34.8,28.76,ENE,68,2.0,2.0,94,0.04,,BKN080,0.20,VWS V14.01,2013-04-13 16:25:00,
2013-04-13 09:30:00,36.3,34.8,28.76,ESE,112,1.3,1.3,94,0.04,,BKN080,0.20,VWS V14.01,2013-04-13 16:30:00,
2013-04-13 09:35:00,36.5,34.7,28.76,SE,135,1.1,1.1,93,0.04,,BKN080,0.20,VWS V14.01,2013-04-13 16:35:00,
2013-04-13 09:40:00,36.9,35.0,28.76,East,90,3.8,3.8,93,0.04,,BKN080,0.20,VWS V14.01,2013-04-13 16:40:00,
2013-04-13 09:45:00,37.0,34.7,28.76,North,0,2.0,2.0,91,0.04,,BKN080,0.20,VWS V14.01,2013-04-13 16:45:00,
2013-04-13 09:50:00,37.0,34.1,28.76,NNW,338,2.9,2.9,89,0.04,,BKN080,0.20,VWS V14.01,2013-04-13 16:50:00,
2013-04-13 09:55:00,37.2,34.3,28.76,North,0,5.6,5.6,89,0.04,,BKN080,0.20,VWS V14.01,2013-04-13 16:55:00,
2013-04-13 10:00:00,37.0,33.8,28.76,NNW,338,3.4,3.4,88,0.00,,BKN080,0.20,VWS V14.01,2013-04-13 17:00:00,
2013-04-13 10:05:00,37.0,33.2,28.76,NNE,22,3.1,3.1,86,0.00,,-RA,0.20,VWS V14.01,2013-04-13 17:05:00,
2013-04-13 10:10:00,37.0,33.2,28.76,NNW,338,2.5,2.5,86,0.00,,-RA,0.20,VWS V14.01,2013-04-13 17:10:00,
2013-04-13 10:15:00,37.0,33.5,28.76,NNE,22,3.8,3.8,87,0.00,,-RA,0.20,VWS V14.01,2013-04-13 17:15:00,
2013-04-13 10:20:00,36.9,33.1,28.73,North,0,2.9,2.9,86,0.00,,-RA,0.20,VWS V14.01,2013-04-13 17:20:00,
2013-04-13 10:25:00,36.9,33.4,28.73,NNE,22,1.3,1.3,87,0.00,,-RA,0.20,VWS V14.01,2013-04-13 17:25:00,
2013-04-13 10:30:00,36.9,33.7,28.73,NNW,338,1.3,1.3,88,0.00,,-RA,0.20,VWS V14.01,2013-04-13 17:30:00,
2013-04-13 10:35:00,36.9,33.7,28.73,NNE,22,1.1,1.1,88,0.05,,-RA,0.25,VWS V14.01,2013-04-13 17:35:00,
2013-04-13 10:41:00,37.2,34.6,28.73,NNE,22,0.0,0.0,90,0.05,,-RA,0.25,VWS V14.01,2013-04-13 17:41:00,
2013-04-13 10:46:00,37.4,34.7,28.76,NNW,338,0.9,0.9,90,0.05,,-RA,0.25,VWS V14.01,2013-04-13 17:46:00,
2013-04-13 10:52:00,37.2,34.3,28.76,NE,45,1.3,1.3,89,0.05,,-RA,0.25,VWS V14.01,2013-04-13 17:52:00,
2013-04-13 10:57:00,37.4,34.2,28.76,SE,135,2.0,2.0,88,0.05,,-RA,0.25,VWS V14.01,2013-04-13 17:57:00,
2013-04-13 11:00:00,37.4,34.2,28.76,NNE,22,0.0,0.0,88,0.05,,-RA,0.25,VWS V14.01,2013-04-13 18:00:00,
2013-04-13 11:02:00,37.4,34.2,28.76,ENE,68,0.9,0.9,88,0.05,,-RA,0.25,VWS V14.01,2013-04-13 18:02:00,
2013-04-13 11:07:00,37.2,34.0,28.76,ESE,112,2.0,2.0,88,0.05,,-RA,0.25,VWS V14.01,2013-04-13 18:07:00,
2013-04-13 11:12:00,36.9,33.4,28.76,ENE,68,1.6,1.6,87,0.05,,-RA,0.25,VWS V14.01,2013-04-13 18:12:00,
2013-04-13 11:17:00,37.4,33.9,28.76,North,0,2.0,2.0,87,0.05,,-RA,0.25,VWS V14.01,2013-04-13 18:17:00,
2013-04-13 11:22:00,37.4,34.2,28.76,ESE,112,2.0,2.0,88,0.05,,-RA,0.25,VWS V14.01,2013-04-13 18:22:00,
2013-04-13 11:27:00,37.0,33.8,28.76,NW,315,0.0,0.0,88,0.05,,-RA,0.25,VWS V14.01,2013-04-13 18:27:00,
2013-04-13 11:30:00,36.9,33.7,28.76,NE,45,2.0,2.0,88,0.05,,-RA,0.25,VWS V14.01,2013-04-13 18:30:00,
2013-04-13 11:32:00,36.7,33.5,28.76,East,90,1.3,1.3,88,0.09,,-RA,0.29,VWS V14.01,2013-04-13 18:32:00,
2013-04-13 11:37:00,36.9,33.9,28.76,NNE,22,1.1,1.1,89,0.09,,-RA,0.29,VWS V14.01,2013-04-13 18:37:00,
2013-04-13 11:42:00,36.7,33.8,28.76,ENE,68,0.9,0.9,89,0.09,,-RA,0.29,VWS V14.01,2013-04-13 18:42:00,
2013-04-13 11:47:00,37.0,34.4,28.76,SW,225,0.0,0.0,90,0.09,,-RA,0.29,VWS V14.01,2013-04-13 18:47:00,
2013-04-13 11:52:00,37.4,34.7,28.76,WSW,248,0.9,0.9,90,0.09,,-RA,0.29,VWS V14.01,2013-04-13 18:52:00,
2013-04-13 11:57:00,37.4,35.0,28.76,SSE,158,2.9,2.9,91,0.09,,-RA,0.29,VWS V14.01,2013-04-13 18:57:00,
2013-04-13 12:00:00,37.2,34.8,28.76,NNW,338,0.9,0.9,91,0.09,,-RA,0.29,VWS V14.01,2013-04-13 19:00:00,
2013-04-13 12:02:00,37.2,34.6,28.76,SE,135,2.5,2.5,90,0.04,,-RA,0.29,VWS V14.01,2013-04-13 19:02:00,
2013-04-13 12:07:00,36.9,34.2,28.76,South,180,0.0,0.0,90,0.04,,-RA,0.29,VWS V14.01,2013-04-13 19:07:00,
2013-04-13 12:12:00,36.9,34.2,28.76,NNE,22,2.0,2.0,90,0.08,,-RA,0.33,VWS V14.01,2013-04-13 19:12:00,
2013-04-13 12:17:00,37.2,34.8,28.76,ENE,68,4.0,4.0,91,0.08,,-RA,0.33,VWS V14.01,2013-04-13 19:17:00,
2013-04-13 12:22:00,37.0,35.2,28.76,NNW,338,1.3,1.3,93,0.08,,-RA,0.33,VWS V14.01,2013-04-13 19:22:00,
2013-04-13 12:27:00,37.4,35.0,28.76,WSW,248,0.0,0.0,91,0.08,,-RA,0.33,VWS V14.01,2013-04-13 19:27:00,
2013-04-13 12:30:00,37.6,35.5,28.76,West,270,1.6,1.6,92,0.08,,-RA,0.33,VWS V14.01,2013-04-13 19:30:00,
2013-04-13 12:32:00,37.9,35.8,28.76,West,270,3.6,3.6,92,0.08,,-RA,0.33,VWS V14.01,2013-04-13 19:32:00,
2013-04-13 12:37:00,37.9,35.8,28.76,West,270,1.6,1.6,92,0.08,,-RA,0.33,VWS V14.01,2013-04-13 19:37:00,
2013-04-13 12:42:00,37.9,35.5,28.76,ENE,68,1.1,1.1,91,0.08,,-RA,0.33,VWS V14.01,2013-04-13 19:42:00,
2013-04-13 12:47:00,37.9,35.3,28.76,WNW,292,0.0,0.0,90,0.08,,-RA,0.33,VWS V14.01,2013-04-13 19:47:00,
2013-04-13 12:52:00,37.8,34.5,28.76,NNW,338,1.6,1.6,88,0.08,,-RA,0.33,VWS V14.01,2013-04-13 19:52:00,
2013-04-13 12:57:00,37.6,34.6,28.76,NNE,22,3.6,3.6,89,0.12,,-RA,0.37,VWS V14.01,2013-04-13 19:57:00,
2013-04-13 13:00:00,37.6,34.6,28.76,ENE,68,3.4,3.4,89,0.12,,-RA,0.37,VWS V14.01,2013-04-13 20:00:00,
2013-04-13 13:02:00,37.6,34.6,28.76,ENE,68,2.7,2.7,89,0.08,,-RA,0.37,VWS V14.01,2013-04-13 20:02:00,
2013-04-13 13:07:00,37.9,35.0,28.76,NW,315,0.0,0.0,89,0.08,,-RA,0.37,VWS V14.01,2013-04-13 20:07:00,
2013-04-13 13:12:00,38.1,35.7,28.76,ENE,68,3.6,3.6,91,0.08,,-RA,0.37,VWS V14.01,2013-04-13 20:12:00,
2013-04-13 13:17:00,37.8,35.1,28.76,ENE,68,3.6,3.6,90,0.08,,-RA,0.37,VWS V14.01,2013-04-13 20:17:00,
2013-04-13 13:22:00,37.6,34.9,28.76,ESE,112,1.6,1.6,90,0.08,,-RA,0.37,VWS V14.01,2013-04-13 20:22:00,
2013-04-13 13:27:00,37.6,34.6,28.76,ENE,68,1.6,1.6,89,0.12,,-RA,0.41,VWS V14.01,2013-04-13 20:27:00,
2013-04-13 13:30:00,37.8,35.1,28.76,SE,135,0.9,0.9,90,0.12,,-RA,0.41,VWS V14.01,2013-04-13 20:30:00,
2013-04-13 13:32:00,37.8,35.1,28.76,NNE,22,3.4,3.4,90,0.08,,-RA,0.41,VWS V14.01,2013-04-13 20:32:00,
2013-04-13 13:37:00,37.9,35.3,28.76,NNE,22,1.3,1.3,90,0.08,,-RA,0.41,VWS V14.01,2013-04-13 20:37:00,
2013-04-13 13:42:00,38.5,35.8,28.76,NE,45,2.0,2.0,90,0.08,,-RA,0.41,VWS V14.01,2013-04-13 20:42:00,
2013-04-13 13:47:00,38.5,35.5,28.76,SW,225,2.5,2.5,89,0.08,,-RA,0.41,VWS V14.01,2013-04-13 20:47:00,
2013-04-13 13:52:00,38.8,36.2,28.76,South,180,1.3,1.3,90,0.08,,-RA,0.41,VWS V14.01,2013-04-13 20:52:00,
2013-04-13 13:57:00,38.8,36.2,28.76,SSE,158,0.0,0.0,90,0.08,,-RA,0.41,VWS V14.01,2013-04-13 20:57:00,
2013-04-13 14:00:00,38.8,36.2,28.76,SSW,202,1.6,1.6,90,0.08,,-RA,0.41,VWS V14.01,2013-04-13 21:00:00,
2013-04-13 14:02:00,38.8,36.2,28.76,ENE,68,1.3,1.3,90,0.04,,,0.41,VWS V14.01,2013-04-13 21:02:00,
2013-04-13 14:07:00,39.0,36.6,28.76,WNW,292,1.1,1.1,91,0.04,,,0.41,VWS V14.01,2013-04-13 21:07:00,
2013-04-13 14:12:00,38.8,36.2,28.76,WNW,292,2.2,2.2,90,0.04,,,0.41,VWS V14.01,2013-04-13 21:12:00,
2013-04-13 14:17:00,38.5,35.5,28.76,NE,45,2.2,2.2,89,0.08,,,0.45,VWS V14.01,2013-04-13 21:17:00,
2013-04-13 14:22:00,38.8,36.2,28.76,SW,225,3.1,3.1,90,0.08,,,0.45,VWS V14.01,2013-04-13 21:22:00,
2013-04-13 14:27:00,39.2,36.8,28.76,NNW,338,2.0,2.0,91,0.08,,,0.45,VWS V14.01,2013-04-13 21:27:00,
2013-04-13 14:30:00,39.2,36.2,28.76,ENE,68,0.0,0.0,89,0.08,,-RA,0.45,VWS V14.01,2013-04-13 21:30:00,
2013-04-13 14:32:00,39.4,36.1,28.76,South,180,1.3,1.3,88,0.04,,,0.45,VWS V14.01,2013-04-13 21:32:00,
2013-04-13 14:37:00,39.6,36.3,28.76,NNE,22,0.9,0.9,88,0.04,,,0.45,VWS V14.01,2013-04-13 21:37:00,
2013-04-13 14:42:00,39.9,37.2,28.76,NNW,338,2.7,2.7,90,0.04,,,0.45,VWS V14.01,2013-04-13 21:42:00,
2013-04-13 14:47:00,39.9,37.5,28.76,South,180,1.1,1.1,91,0.04,,,0.45,VWS V14.01,2013-04-13 21:47:00,
2013-04-13 14:52:00,40.3,37.9,28.76,North,0,4.3,4.3,91,0.04,,,0.45,VWS V14.01,2013-04-13 21:52:00,
2013-04-13 14:57:00,40.5,37.2,28.76,NNW,338,2.9,2.9,88,0.04,,,0.45,VWS V14.01,2013-04-13 21:57:00,
2013-04-13 15:00:00,40.6,37.4,28.76,ENE,68,2.5,2.5,88,0.04,,-RA,0.45,VWS V14.01,2013-04-13 22:00:00,
2013-04-13 15:02:00,40.6,37.4,28.76,NNE,22,2.7,2.7,88,0.04,,-RA,0.45,VWS V14.01,2013-04-13 22:02:00,
2013-04-13 15:07:00,40.5,37.2,28.76,East,90,6.0,6.0,88,0.04,,-RA,0.45,VWS V14.01,2013-04-13 22:07:00,
2013-04-13 15:12:00,40.5,36.6,28.76,NNW,338,3.4,3.4,86,0.04,,-RA,0.45,VWS V14.01,2013-04-13 22:12:00,
2013-04-13 15:17:00,40.5,36.0,28.76,NNW,338,5.6,5.6,84,0.04,,-RA,0.45,VWS V14.01,2013-04-13 22:17:00,
2013-04-13 15:22:00,40.5,36.3,28.76,ENE,68,4.3,4.3,85,0.04,,-RA,0.45,VWS V14.01,2013-04-13 22:22:00,
2013-04-13 15:27:00,40.6,36.8,28.76,ENE,68,2.5,2.5,86,0.04,,-RA,0.45,VWS V14.01,2013-04-13 22:27:00,
2013-04-13 15:30:00,40.6,36.8,28.76,WSW,248,2.5,2.5,86,0.04,,-RA,0.45,VWS V14.01,2013-04-13 22:30:00,
2013-04-13 15:32:00,40.6,36.8,28.76,NE,45,3.6,3.6,86,0.00,,-RA,0.45,VWS V14.01,2013-04-13 22:32:00,
2013-04-13 15:37:00,40.6,37.1,28.76,NE,45,2.0,2.0,87,0.00,,-RA,0.45,VWS V14.01,2013-04-13 22:37:00,
2013-04-13 15:42:00,40.5,36.9,28.76,SSE,158,2.0,2.0,87,0.05,,-RA,0.50,VWS V14.01,2013-04-13 22:42:00,
2013-04-13 15:47:00,40.3,37.0,28.76,WNW,292,2.7,2.7,88,0.05,,-RA,0.50,VWS V14.01,2013-04-13 22:47:00,
2013-04-13 15:52:00,39.9,36.7,28.76,WNW,292,3.6,3.6,88,0.05,,-RA,0.50,VWS V14.01,2013-04-13 22:52:00,
2013-04-13 16:51:00,38.7,36.3,28.76,SE,135,0.0,0.0,91,0.00,,-RA,0.45,VWS V14.01,2013-04-13 23:51:00,
2013-04-13 16:56:00,38.7,36.3,28.76,SE,135,2.0,2.0,91,0.13,,-RA,0.58,VWS V14.01,2013-04-13 23:56:00,
2013-04-13 17:01:00,38.5,36.4,28.76,SSW,202,1.1,1.1,92,0.00,,,0.58,VWS V14.01,2013-04-14 00:01:00,
2013-04-13 17:06:00,38.3,36.2,28.76,NW,315,2.2,2.2,92,0.00,,,0.58,VWS V14.01,2013-04-14 00:06:00,
2013-04-13 17:11:00,38.1,36.3,28.76,SW,225,0.0,0.0,93,0.04,,,0.62,VWS V14.01,2013-04-14 00:11:00,
2013-04-13 17:16:00,37.8,35.9,28.76,South,180,2.0,2.0,93,0.04,,,0.62,VWS V14.01,2013-04-14 00:16:00,
2013-04-13 17:21:00,37.6,36.0,28.76,SW,225,1.6,1.6,94,0.08,,,0.66,VWS V14.01,2013-04-14 00:21:00,
2013-04-13 17:26:00,37.6,36.0,28.76,WNW,292,1.3,1.3,94,0.08,,,0.66,VWS V14.01,2013-04-14 00:26:00,
2013-04-13 17:31:00,37.9,36.6,28.76,SW,225,1.1,1.1,95,0.08,,-RA,0.66,VWS V14.01,2013-04-14 00:31:00,
2013-04-13 17:36:00,38.7,37.3,28.76,WSW,248,0.0,0.0,95,0.08,,-RA,0.66,VWS V14.01,2013-04-14 00:36:00,
2013-04-13 17:41:00,39.6,38.5,28.76,NNE,22,1.6,1.6,96,0.08,,-RA,0.66,VWS V14.01,2013-04-14 00:41:00,
2013-04-13 17:46:00,40.6,39.6,28.76,NNE,22,1.6,1.6,96,0.12,,-RA,0.70,VWS V14.01,2013-04-14 00:46:00,
2013-04-13 17:51:00,41.0,39.7,28.76,SSW,202,2.7,2.7,95,0.12,,-RA,0.70,VWS V14.01,2013-04-14 00:51:00,
2013-04-13 17:56:00,41.0,39.1,28.76,WSW,248,4.9,4.9,93,0.12,,-RA,0.70,VWS V14.01,2013-04-14 00:56:00,
2013-04-13 18:01:00,41.0,37.1,28.76,WSW,248,2.0,2.0,86,0.12,, +RA,0.70,VWS V14.01,2013-04-14 01:01:00,
2013-04-13 18:06:00,41.0,38.0,28.76,SSW,202,2.9,2.9,89,0.12,, +RA,0.70,VWS V14.01,2013-04-14 01:06:00,
2013-04-13 18:11:00,40.6,37.7,28.76,SSW,202,2.5,2.5,89,0.12,, +RA,0.70,VWS V14.01,2013-04-14 01:11:00,
2013-04-13 18:16:00,40.5,37.5,28.76,North,0,3.1,3.1,89,0.12,, +RA,0.70,VWS V14.01,2013-04-14 01:16:00,
2013-04-13 18:22:00,40.3,37.0,28.76,NNE,22,2.5,2.5,88,0.12,, +RA,0.70,VWS V14.01,2013-04-14 01:22:00,
2013-04-13 18:27:00,39.9,37.2,28.76,NNW,338,1.6,1.6,90,0.12,, +RA,0.70,VWS V14.01,2013-04-14 01:27:00,
2013-04-13 18:32:00,39.6,37.2,28.76,WNW,292,2.0,2.0,91,0.04,, +RA,0.70,VWS V14.01,2013-04-14 01:32:00,
2013-04-13 18:37:00,39.4,37.2,28.76,SSW,202,1.1,1.1,92,0.04,, +RA,0.70,VWS V14.01,2013-04-14 01:37:00,
2013-04-13 18:42:00,39.2,37.3,28.76,SSW,202,4.3,4.3,93,0.04,, +RA,0.70,VWS V14.01,2013-04-14 01:42:00,
2013-04-13 18:47:00,38.8,37.3,28.76,WNW,292,0.9,0.9,94,0.08,, +RA,0.74,VWS V14.01,2013-04-14 01:47:00,
2013-04-13 18:52:00,38.7,37.1,28.76,WSW,248,2.2,2.2,94,0.08,, +RA,0.74,VWS V14.01,2013-04-14 01:52:00,
2013-04-13 18:57:00,38.5,36.9,28.76,NE,45,2.9,2.9,94,0.08,, +RA,0.74,VWS V14.01,2013-04-14 01:57:00,
2013-04-13 19:02:00,38.3,36.7,28.76,NNW,338,1.1,1.1,94,0.09,,-RA,0.79,VWS V14.01,2013-04-14 02:02:00,
2013-04-13 19:07:00,38.5,36.9,28.76,WSW,248,2.0,2.0,94,0.09,,-RA,0.79,VWS V14.01,2013-04-14 02:07:00,
2013-04-13 19:12:00,38.7,37.3,28.76,South,180,3.1,3.1,95,0.09,,-RA,0.79,VWS V14.01,2013-04-14 02:12:00,
2013-04-13 19:17:00,38.7,37.6,28.76,ENE,68,1.6,1.6,96,0.09,,-RA,0.79,VWS V14.01,2013-04-14 02:17:00,
2013-04-13 19:22:00,38.7,37.6,28.76,WNW,292,2.0,2.0,96,0.09,,-RA,0.79,VWS V14.01,2013-04-14 02:22:00,
2013-04-13 19:27:00,38.5,37.4,28.76,SSW,202,5.8,5.8,96,0.09,,-RA,0.79,VWS V14.01,2013-04-14 02:27:00,
2013-04-13 19:32:00,38.3,37.0,28.76,SSW,202,4.3,4.3,95,0.09,,-RA,0.79,VWS V14.01,2013-04-14 02:32:00,
2013-04-13 19:37:00,38.1,36.8,28.76,WNW,292,2.5,2.5,95,0.09,,-RA,0.79,VWS V14.01,2013-04-14 02:37:00,
2013-04-13 19:42:00,37.9,36.6,28.76,South,180,0.0,0.0,95,0.09,,-RA,0.79,VWS V14.01,2013-04-14 02:42:00,
2013-04-13 19:47:00,37.9,36.6,28.76,WSW,248,2.7,2.7,95,0.09,,-RA,0.79,VWS V14.01,2013-04-14 02:47:00,
2013-04-13 19:52:00,37.9,36.9,28.76,SSW,202,5.4,5.4,96,0.09,,-RA,0.79,VWS V14.01,2013-04-14 02:52:00,
2013-04-13 19:57:00,37.6,36.3,28.76,SW,225,0.0,0.0,95,0.13,,-RA,0.83,VWS V14.01,2013-04-14 02:57:00,
2013-04-13 20:02:00,37.6,36.3,28.76,SW,225,1.6,1.6,95,0.04,,-RA,0.83,VWS V14.01,2013-04-14 03:02:00,
2013-04-13 20:07:00,37.4,36.1,28.76,SW,225,1.1,1.1,95,0.08,,-RA,0.87,VWS V14.01,2013-04-14 03:07:00,
2013-04-13 20:12:00,37.2,35.9,28.76,West,270,0.0,0.0,95,0.08,,-RA,0.87,VWS V14.01,2013-04-14 03:12:00,
2013-04-13 20:17:00,37.2,35.9,28.79,SE,135,0.0,0.0,95,0.08,,-RA,0.87,VWS V14.01,2013-04-14 03:17:00,
2013-04-13 20:22:00,37.2,36.2,28.79,South,180,2.2,2.2,96,0.12,,-RA,0.91,VWS V14.01,2013-04-14 03:22:00,
2013-04-13 20:27:00,37.0,36.0,28.79,North,0,0.0,0.0,96,0.12,,-RA,0.91,VWS V14.01,2013-04-14 03:27:00,
2013-04-13 20:32:00,37.0,36.0,28.79,East,90,3.1,3.1,96,0.12,,BKN030,0.91,VWS V14.01,2013-04-14 03:32:00,
2013-04-13 20:37:00,36.9,35.8,28.79,WNW,292,3.4,3.4,96,0.12,,BKN030,0.91,VWS V14.01,2013-04-14 03:37:00,
2013-04-13 20:42:00,36.7,35.7,28.79,WNW,292,2.0,2.0,96,0.12,,BKN030,0.91,VWS V14.01,2013-04-14 03:42:00,
2013-04-13 20:47:00,36.7,35.9,28.79,North,0,2.2,2.2,97,0.12,,BKN030,0.91,VWS V14.01,2013-04-14 03:47:00,
2013-04-13 20:52:00,36.9,36.1,28.79,NE,45,0.0,0.0,97,0.12,,BKN030,0.91,VWS V14.01,2013-04-14 03:52:00,
2013-04-13 20:57:00,36.7,35.9,28.79,West,270,1.6,1.6,97,0.16,,BKN030,0.95,VWS V14.01,2013-04-14 03:57:00,
2013-04-13 21:00:00,36.9,36.1,28.79,WNW,292,1.6,1.6,97,0.16,,BKN030,0.95,VWS V14.01,2013-04-14 04:00:00,
2013-04-13 21:05:00,36.9,36.1,28.79,SSE,158,0.0,0.0,97,0.12,,RA,0.95,VWS V14.01,2013-04-14 04:05:00,
2013-04-13 21:10:00,36.9,36.1,28.79,NE,45,3.8,3.8,97,0.16,,RA,0.99,VWS V14.01,2013-04-14 04:10:00,
2013-04-13 21:15:00,36.9,36.1,28.79,SSW,202,0.9,0.9,97,0.16,,RA,0.99,VWS V14.01,2013-04-14 04:15:00,
2013-04-13 21:20:00,36.3,35.5,28.79,SSW,202,0.0,0.0,97,0.16,,RA,0.99,VWS V14.01,2013-04-14 04:20:00,
2013-04-13 21:25:00,36.1,35.4,28.79,NE,45,2.0,2.0,97,0.16,,RA,0.99,VWS V14.01,2013-04-14 04:25:00,
2013-04-13 21:30:00,36.1,35.4,28.79,SSW,202,0.0,0.0,97,0.21,,RA,1.04,VWS V14.01,2013-04-14 04:30:00,
2013-04-13 21:35:00,36.1,35.4,28.79,SSW,202,0.0,0.0,97,0.13,,RA,1.04,VWS V14.01,2013-04-14 04:35:00,
2013-04-13 21:40:00,36.1,35.4,28.79,ENE,68,0.0,0.0,97,0.13,,RA,1.04,VWS V14.01,2013-04-14 04:40:00,
2013-04-13 21:45:00,36.0,35.2,28.79,South,180,0.0,0.0,97,0.13,,RA,1.04,VWS V14.01,2013-04-14 04:45:00,
2013-04-13 21:50:00,36.0,35.2,28.79,East,90,1.6,1.6,97,0.13,,RA,1.04,VWS V14.01,2013-04-14 04:50:00,
2013-04-13 21:55:00,35.8,35.0,28.79,East,90,0.0,0.0,97,0.16,,RA,1.07,VWS V14.01,2013-04-14 04:55:00,
2013-04-13 22:00:00,36.0,35.5,28.79,SE,135,0.0,0.0,98,0.16,,RA,1.07,VWS V14.01,2013-04-14 05:00:00,
2013-04-13 22:05:00,36.0,35.5,28.79,SSW,202,0.0,0.0,98,0.12,,BKN060,1.07,VWS V14.01,2013-04-14 05:05:00,
2013-04-13 22:10:00,35.8,35.3,28.79,SSW,202,0.0,0.0,98,0.12,,BKN060,1.07,VWS V14.01,2013-04-14 05:10:00,
2013-04-13 22:15:00,35.8,35.3,28.79,SSW,202,1.6,1.6,98,0.12,,BKN060,1.07,VWS V14.01,2013-04-14 05:15:00,
2013-04-13 22:19:00,36.0,35.5,28.79,South,180,0.0,0.0,98,0.12,,BKN060,1.07,VWS V14.01,2013-04-14 05:19:00,
2013-04-13 22:24:00,36.0,35.5,28.79,NW,315,1.6,1.6,98,0.12,,BKN060,1.07,VWS V14.01,2013-04-14 05:24:00,
2013-04-13 22:29:00,35.8,35.3,28.79,NNW,338,0.9,0.9,98,0.12,,BKN060,1.07,VWS V14.01,2013-04-14 05:29:00,
2013-04-13 22:34:00,36.0,35.5,28.79,NNW,338,2.0,2.0,98,0.08,,BKN060,1.12,VWS V14.01,2013-04-14 05:34:00,
2013-04-13 22:39:00,36.0,35.5,28.79,NNW,338,0.9,0.9,98,0.08,,BKN060,1.12,VWS V14.01,2013-04-14 05:39:00,
2013-04-13 22:44:00,36.0,35.5,28.79,ENE,68,0.9,0.9,98,0.08,,BKN060,1.12,VWS V14.01,2013-04-14 05:44:00,
2013-04-13 22:49:00,36.1,35.6,28.79,NW,315,0.0,0.0,98,0.08,,BKN060,1.12,VWS V14.01,2013-04-14 05:49:00,
2013-04-13 22:54:00,36.1,35.6,28.79,South,180,0.0,0.0,98,0.08,,BKN060,1.12,VWS V14.01,2013-04-14 05:54:00,
2013-04-13 22:59:00,36.1,35.6,28.79,SE,135,0.0,0.0,98,0.08,,BKN060,1.12,VWS V14.01,2013-04-14 05:59:00,
2013-04-13 23:04:00,36.0,35.5,28.79,SE,135,0.0,0.0,98,0.05,,OVC028,1.12,VWS V14.01,2013-04-14 06:04:00,
2013-04-13 23:09:00,36.1,35.6,28.79,South,180,0.0,0.0,98,0.05,,OVC028,1.12,VWS V14.01,2013-04-14 06:09:00,
2013-04-13 23:14:00,36.1,35.6,28.79,South,180,0.0,0.0,98,0.09,,OVC028,1.16,VWS V14.01,2013-04-14 06:14:00,
2013-04-13 23:19:00,36.1,35.6,28.79,South,180,0.0,0.0,98,0.09,,OVC028,1.16,VWS V14.01,2013-04-14 06:19:00,
2013-04-13 23:24:00,36.0,35.5,28.79,West,270,1.6,1.6,98,0.09,,OVC028,1.16,VWS V14.01,2013-04-14 06:24:00,
2013-04-13 23:29:00,36.0,35.5,28.79,North,0,1.3,1.3,98,0.09,,OVC028,1.16,VWS V14.01,2013-04-14 06:29:00,
2013-04-13 23:34:00,36.0,35.5,28.79,NNW,338,2.5,2.5,98,0.09,,OVC028,1.16,VWS V14.01,2013-04-14 06:34:00,
2013-04-13 23:39:00,35.8,35.3,28.79,NNW,338,2.5,2.5,98,0.09,,OVC028,1.16,VWS V14.01,2013-04-14 06:39:00,
2013-04-13 23:44:00,35.8,35.3,28.79,South,180,0.0,0.0,98,0.09,,OVC028,1.16,VWS V14.01,2013-04-14 06:44:00,
2013-04-13 23:49:00,36.0,35.5,28.82,SE,135,0.0,0.0,98,0.09,,OVC028,1.16,VWS V14.01,2013-04-14 06:49:00,
2013-04-13 23:54:00,36.0,35.5,28.82,ESE,112,1.3,1.3,98,0.09,,OVC028,1.16,VWS V14.01,2013-04-14 06:54:00,
2013-04-13 23:59:00,35.8,35.3,28.82,ESE,112,0.0,0.0,98,0.09,,OVC028,1.16,VWS V14.01,2013-04-14 06:59:00,